Location: Vienna
(48.2082°N, 16.3738°E)
Time: 12:13:00
(UTC+01:00)

ISS - Pass Details

Date: 24 November 2019
Orbit: 411 x 421 km, 51.6° (Epoch: 15 December)

Event Time Altitude Azimuth Distance (km) Brightness Sun altitude
Rises 16:48:28 0° 195° (SSW) 2,341 0.6 -6.9°
Reaches altitude 10° 16:51:17 10° 169° (SSE) 1,487 -0.8 -7.3°
Maximum altitude 16:53:06 14° 136° (SE) 1,273 -1.5 -7.6°
Drops below altitude 10° 16:54:56 10° 102° (ESE) 1,496 -1.4 -7.9°
Enters shadow 16:55:29 - 95° (E) 1,634 -1.3 -8.0°
